Notices

What's New in latest Release from April 7th, 2021:

- Updated Glossary, including Speed of Maximum Gust, and Total Hourly Precipitation

- Updated national and regional climate services offices contacts and prices information

- Addition of station inventory lists for 1981-2010, 1971-2000, and 1961-1990 Normals.

If you haven't already, please take our survey and provide feedback about our website: https://eccc.sondage-survey.ca/f/LanguageSelection.aspx?s=442ca660-fcf1-47c0-95a9-59707d6fd709

Hourly Data Report for November 12, 2020

CARBERRY CS
MANITOBA
Current Station Operator: ECCC - MSC

49°54'20.900" N
99°21'26.800" W
383.50 m
5010547
71170
WZE

Download Data

Hourly Data (November 2020)
Hourly Data Report for November 12, 2020
TIME
LST
Temp Definition
°C
Dew Point Definition
°C
Rel Hum Definition
%
Precip. Amount Definition
mm

Wind Dir Definition
10's deg

Wind Spd Definition
km/h
Visibility Definition
km
Stn Press Definition
kPa
Hmdx Definition


Wind Chill Definition


Weather Definition


00:00 -8.7 -10.4 88 0.0 34 12   96.56   -14 LegendNANA
01:00 -9.1 -10.5 89 0.0 31 8   96.63   -13 LegendNANA
02:00 -8.9 -10.3 90 0.2 28 9   96.67   -14 LegendNANA
03:00 -8.9 -10.5 88 0.0 29 13   96.71   -15 LegendNANA
04:00 -8.9 -11.0 84 0.0 30 18   96.76   -16 LegendNANA
05:00 -9.3 -11.8 82 0.0 31 16   96.82   -16 LegendNANA
06:00 -9.9 -12.2 83 0.0 31 13   96.86   -16 LegendNANA
07:00 -9.7 -12.0 84 0.0 29 11   96.89   -15 LegendNANA
08:00 -9.8 -12.7 79 0.0 29 12   96.94   -16 LegendNANA
09:00 -9.8 -12.4 82 0.0 28 12   97.01   -16 LegendNANA
10:00 -11.6 -14.5 79 0.0 27 19   97.05   -20 LegendNANA
11:00 -11.4 -15.1 74 0.0 27 18   97.07   -19 LegendNANA
12:00 -11.2 -15.3 71 0.0 27 16   97.10   -18 LegendNANA
13:00 -10.4 -15.2 68 0.0 27 13   97.05   -17 LegendNANA
14:00 -10.1 -15.4 65 0.0 25 18   97.05   -18 LegendNANA
15:00 -10.6 -15.8 65 0.0 26 20   97.04   -19 LegendNANA
16:00 -11.4 -16.4 67 0.0 26 19   97.10   -19 LegendNANA
17:00 -13.2 -17.1 73 0.0 26 14   97.14   -20 LegendNANA
18:00 -14.7 -17.4 80 0.0 22 6   97.12   -19 LegendNANA
19:00 -16.2 -18.5 82 0.0 21 9   97.07   -22 LegendNANA
20:00 -16.8 -18.9 83 0.0 23 7   97.04   -22 LegendNANA
21:00 -17.6 -19.6 85 0.0 20 10   96.99   -24 LegendNANA
22:00 -18.7 -20.5 85 0.0 19 9   96.99   -25 LegendNANA
23:00 -18.9 -20.8 85 0.0 18 11   96.91   -26 LegendNANA

Notes on Data Quality.

Legend

  • E = Estimated
  • M = Missing
  • NA = Not Available*
  • [empty] = Indicates an unobserved value
Date modified: